This demonstration page uses our WeatherBlox Daily Observations layout. Learn more.

Left ArrowRight Arrow

47.50024, -111.30081

Hourly Observations for April 30, 2022

Temp ( °F °C ) Dew Point ( °F °C ) Humidity (%) Winds ( mph kmh ) Pressure ( in mb ) Visibility ( mi km ) Precip ( " mm )
12:53 am 00:53 Clear 34 1.1 29 -1.7 82 82 SSW 8 13 30.23 1024 10 16 0.00 0.00
1:53 am 01:53 Clear 32 0 28 -2.2 85 85 SSW 9 15 30.23 1024 10 16 0.00 0.00
2:53 am 02:53 Clear 34 1.1 29 -1.7 82 82 SSE 3 6 30.20 1023 10 16 0.00 0.00
3:53 am 03:53 Clear 30 -1.1 26 -3.3 85 85 SSW 10 17 30.21 1023 10 16 0.00 0.00
4:53 am 04:53 Clear 33 0.6 29 -1.7 85 85 S 9 15 30.20 1023 10 16 0.00 0.00
5:53 am 05:53 Clear 34 1.1 28 -2.2 79 79 S 8 13 30.19 1023 10 16 0.00 0.00
6:53 am 06:53 Sunny 33 0.6 28 -2.2 82 82 S 6 9 30.20 1023 10 16 0.00 0.00
7:53 am 07:53 Sunny 40 4.4 32 0 73 73 SSE 5 7 30.19 1022 10 16 0.00 0.00
8:53 am 08:53 Sunny 44 6.7 33 0.6 65 65 S 7 11 30.18 1022 10 16 0.00 0.00
9:53 am 09:53 Sunny 48 8.9 33 0.6 56 56 E 9 15 30.16 1021 10 16 0.00 0.00
10:53 am 10:53 Sunny 49 9.4 32 0 52 52 ESE 15 24 30.14 1021 10 16 0.00 0.00
11:53 am 11:53 Sunny 52 11.1 31 -0.6 45 45 E 16 26 30.12 1020 10 16 0.00 0.00
12:53 pm 12:53 Sunny 53 11.7 28 -2.2 38 38 ESE 13 20 30.09 1019 10 16 0.00 0.00
1:53 pm 13:53 Sunny 54 12.2 28 -2.2 37 37 ENE 16 26 30.06 1018 10 16 0.00 0.00
2:53 pm 14:53 Mostly Cloudy 58 14.4 31 -0.6 36 36 ESE 15 24 30.03 1017 10 16 0.00 0.00
3:53 pm 15:53 Mostly Cloudy 57 13.9 29 -1.7 34 34 ESE 13 20 30.01 1016 10 16 0.00 0.00
4:53 pm 16:53 Mostly Cloudy 56 13.3 29 -1.7 36 36 E 14 22 30.00 1016 10 16 0.00 0.00
5:53 pm 17:53 Cloudy 56 13.3 29 -1.7 36 36 E 16 26 29.99 1016 10 16 0.00 0.00
6:53 pm 18:53 Cloudy 54 12.2 29 -1.7 38 38 ESE 17 28 29.99 1016 10 16 0.00 0.00
7:53 pm 19:53 Cloudy 52 11.1 30 -1.1 43 43 E 15 24 29.99 1016 10 16 0.00 0.00
8:53 pm 20:53 Cloudy 51 10.6 32 0 48 48 SE 10 17 29.99 1016 10 16 0.00 0.00
9:53 pm 21:53 Cloudy 48 8.9 34 1.1 58 58 E 7 11 30.00 1016 10 16 0.00 0.00
10:53 pm 22:53 Cloudy 48 8.9 33 0.6 56 56 E 10 17 29.99 1016 10 16 0.00 0.00
11:53 pm 23:53 Cloudy 47 8.3 34 1.1 61 61 E 7 11 29.98 1015 10 16 0.00 0.00

Powered by AerisWeather